| time (UTC) | temp F | wind direction | speed MPH | gust MPH | rain 1hr in | rain 24hr in | rain mn in | humidity % | barometer mb |
| 20260506044536 | 54 | 238 | 0.0 | 0.0 | 0.00 | 0.09 | 0.00 | 68 | 1008.4 |
| 20260506043025 | 53 | 238 | 0.0 | 0.0 | 0.00 | 0.09 | 0.00 | 68 | 1008.5 |
| 20260506041528 | 53 | 238 | 0.0 | 0.0 | 0.00 | 0.09 | 0.00 | 69 | 1008.6 |
| 20260506040019 | 52 | 238 | 0.0 | 0.0 | 0.00 | 0.09 | 0.00 | 72 | 1008.6 |
| 20260506034516 | 53 | 238 | 0.0 | 0.0 | 0.00 | 0.09 | 0.00 | 72 | 1008.7 |
| 20260506033013 | 53 | 238 | 0.0 | 0.0 | 0.00 | 0.09 | 0.00 | 73 | 1008.8 |
| 20260506031512 | 53 | 238 | 0.0 | 0.0 | 0.00 | 0.09 | 0.00 | 74 | 1008.9 |
| 20260506030010 | 54 | 126 | 0.0 | 0.0 | 0.00 | 0.09 | 0.00 | 75 | 1008.5 |
| 20260506024516 | 54 | 127 | 0.0 | 0.0 | 0.00 | 0.09 | 0.00 | 76 | 1008.6 |
| 20260506023013 | 55 | 127 | 0.0 | 0.0 | 0.00 | 0.09 | 0.00 | 77 | 1008.7 |
| 20260506021505 | 55 | 127 | 0.0 | 0.0 | 0.00 | 0.09 | 0.00 | 78 | 1008.7 |
| 20260506020004 | 56 | 126 | 0.0 | 0.0 | 0.00 | 0.09 | 0.00 | 78 | 1008.5 |
| 20260506014502 | 57 | 134 | 0.0 | 0.0 | 0.00 | 0.09 | 0.00 | 78 | 1008.5 |
| 20260506013003 | 57 | 242 | 0.0 | 0.0 | 0.00 | 0.09 | 0.00 | 77 | 1008.5 |
| 20260506011503 | 58 | 269 | 0.0 | 0.0 | 0.00 | 0.09 | 0.00 | 77 | 1008.8 |
| 20260506010002 | 58 | 241 | 0.0 | 0.0 | 0.00 | 0.09 | 0.00 | 77 | 1008.9 |
| 20260506004501 | 58 | 223 | 0.0 | 0.0 | 0.00 | 0.09 | 0.00 | 77 | 1009.1 |
| 20260506003100 | 58 | 267 | 0.0 | 0.0 | 0.00 | 0.09 | 0.00 | 77 | 1009.3 |
| 20260506001601 | 58 | 246 | 0.0 | 0.0 | 0.00 | 0.09 | 0.00 | 77 | 1009.2 |
| 20260505234557 | 58 | 239 | 0.0 | 0.0 | 0.00 | 0.09 | 0.00 | 77 | 1009.1 |
| 20260505233055 | 58 | 235 | 0.0 | 0.0 | 0.00 | 0.09 | 0.00 | 76 | 1009.2 |
| 20260505231555 | 58 | 272 | 0.0 | 0.0 | 0.00 | 0.09 | 0.00 | 76 | 1008.9 |
| 20260505230052 | 57 | 245 | 0.0 | 0.0 | 0.00 | 0.09 | 0.00 | 75 | 1008.9 |
| 20260505224610 | 57 | 271 | 0.0 | 0.0 | 0.00 | 0.09 | 0.00 | 72 | 1008.6 |
| 20260505223041 | 56 | 244 | 0.0 | 0.0 | 0.00 | 0.09 | 0.00 | 68 | 1008.4 |
| 20260505221545 | 56 | 225 | 0.0 | 0.0 | 0.00 | 0.09 | 0.00 | 67 | 1008.0 |
| 20260505220051 | 56 | 237 | 0.0 | 0.0 | 0.00 | 0.09 | 0.00 | 68 | 1007.9 |
| 20260505214534 | 56 | 360 | 0.0 | 0.0 | 0.00 | 0.09 | 0.09 | 68 | 1007.7 |
| 20260505213038 | 56 | 360 | 0.0 | 0.0 | 0.00 | 0.09 | 0.09 | 69 | 1007.5 |
| 20260505211538 | 57 | 209 | 0.0 | 0.0 | 0.00 | 0.09 | 0.09 | 69 | 1007.2 |
| 20260505210041 | 57 | 360 | 0.0 | 0.0 | 0.00 | 0.09 | 0.09 | 70 | 1007.1 |
| 20260505204531 | 58 | 360 | 0.0 | 0.0 | 0.00 | 0.09 | 0.09 | 72 | 1006.9 |
| 20260505203030 | 58 | 211 | 0.0 | 0.0 | 0.00 | 0.09 | 0.09 | 72 | 1006.8 |
| 20260505201529 | 58 | 360 | 0.0 | 0.0 | 0.00 | 0.09 | 0.09 | 73 | 1006.8 |
| 20260505200028 | 58 | 211 | 0.0 | 0.0 | 0.00 | 0.09 | 0.09 | 72 | 1006.5 |
| 20260505194528 | 58 | 209 | 0.0 | 0.0 | 0.00 | 0.09 | 0.09 | 72 | 1006.3 |
| 20260505193034 | 58 | 360 | 0.0 | 0.0 | 0.00 | 0.09 | 0.09 | 72 | 1006.1 |
| 20260505191526 | 58 | 247 | 0.0 | 0.0 | 0.00 | 0.09 | 0.09 | 71 | 1005.9 |
| 20260505190026 | 58 | 253 | 0.0 | 0.0 | 0.04 | 0.09 | 0.09 | 70 | 1005.8 |
| 20260505184527 | 58 | 258 | 0.0 | 0.0 | 0.09 | 0.09 | 0.09 | 69 | 1005.5 |
| 20260505183035 | 58 | 237 | 0.0 | 0.0 | 0.09 | 0.09 | 0.09 | 69 | 1005.2 |
| 20260505181528 | 59 | 254 | 0.0 | 0.0 | 0.09 | 0.09 | 0.09 | 75 | 1004.9 |
| 20260505180025 | 60 | 234 | 0.0 | 0.0 | 0.05 | 0.05 | 0.05 | 77 | 1004.8 |
| 20260505174522 | 62 | 257 | 0.0 | 0.0 | 0.00 | 0.00 | 0.00 | 72 | 1004.5 |
| 20260505173021 | 66 | 298 | 0.0 | 0.0 | 0.00 | 0.00 | 0.00 | 61 | 1004.1 |
| 20260505171521 | 75 | 307 | 0.0 | 0.0 | 0.00 | 0.00 | 0.00 | 44 | 1003.6 |
| 20260505170020 | 76 | 94 | 0.0 | 0.0 | 0.00 | 0.00 | 0.00 | 43 | 1003.0 |
| 20260505164520 | 76 | 95 | 0.0 | 0.0 | 0.00 | 0.00 | 0.00 | 43 | 1003.0 |
| 20260505163019 | 78 | 96 | 0.0 | 0.0 | 0.00 | 0.00 | 0.00 | 42 | 1003.0 |
| 20260505161517 | 78 | 102 | 0.0 | 0.0 | 0.00 | 0.00 | 0.00 | 39 | 1003.3 |
| 20260505153013 | 79 | 49 | 0.0 | 0.0 | 0.00 | 0.00 | 0.00 | 38 | 1003.5 |
| 20260505151511 | 81 | 65 | 0.0 | 0.0 | 0.00 | 0.00 | 0.00 | 35 | 1003.6 |
| 20260505124558 | 78 | 34 | 0.0 | 0.0 | 0.00 | 0.00 | 0.00 | 37 | 1005.2 |
| 20260505123056 | 81 | 93 | 0.0 | 0.0 | 0.00 | 0.00 | 0.00 | 36 | 1005.4 |
| 20260505121547 | 80 | 60 | 0.0 | 0.0 | 0.00 | 0.00 | 0.00 | 37 | 1005.5 |
| 20260505120059 | 79 | 95 | 0.0 | 0.0 | 0.00 | 0.00 | 0.00 | 39 | 1005.8 |
| 20260505114541 | 79 | 32 | 0.0 | 0.0 | 0.00 | 0.00 | 0.00 | 37 | 1005.9 |
| 20260505113043 | 77 | 38 | 0.0 | 0.0 | 0.00 | 0.00 | 0.00 | 40 | 1006.1 |
| 20260505111538 | 79 | 71 | 0.0 | 0.0 | 0.00 | 0.00 | 0.00 | 43 | 1006.3 |
| 20260505101525 | 75 | 40 | 0.0 | 0.0 | 0.00 | 0.00 | 0.00 | 46 | 1007.0 |
| 20260505100024 | 74 | 38 | 0.0 | 0.0 | 0.00 | 0.00 | 0.00 | 49 | 1007.2 |
| 20260505094519 | 73 | 40 | 0.0 | 0.0 | 0.00 | 0.00 | 0.00 | 49 | 1007.3 |
| 20260505093014 | 72 | 24 | 0.0 | 0.0 | 0.00 | 0.00 | 0.00 | 52 | 1007.4 |
| 20260505091513 | 72 | 50 | 0.0 | 0.0 | 0.00 | 0.00 | 0.00 | 54 | 1007.6 |
| 20260505090009 | 71 | 40 | 0.0 | 0.0 | 0.00 | 0.00 | 0.00 | 57 | 1007.7 |
| 20260505084513 | 70 | 49 | 0.0 | 0.0 | 0.00 | 0.00 | 0.00 | 56 | 1007.8 |
| 20260505083002 | 69 | 255 | 0.0 | 0.0 | 0.00 | 0.00 | 0.00 | 54 | 1007.9 |
| 20260505081559 | 68 | 26 | 0.0 | 0.0 | 0.00 | 0.00 | 0.00 | 55 | 1007.9 |
| 20260505080106 | 67 | 348 | 0.0 | 0.0 | 0.00 | 0.00 | 0.00 | 57 | 1008.1 |
| 20260505074550 | 66 | 209 | 0.0 | 0.0 | 0.00 | 0.00 | 0.00 | 62 | 1008.3 |
| 20260505073047 | 65 | 319 | 0.0 | 0.0 | 0.00 | 0.00 | 0.00 | 61 | 1008.4 |
| 20260505071543 | 64 | 250 | 0.0 | 0.0 | 0.00 | 0.00 | 0.00 | 63 | 1008.3 |
| 20260505070044 | 63 | 246 | 0.0 | 0.0 | 0.00 | 0.00 | 0.00 | 63 | 1008.4 |
| 20260505064535 | 62 | 232 | 0.0 | 0.0 | 0.00 | 0.00 | 0.00 | 64 | 1008.5 |
| 20260505063033 | 62 | 246 | 0.0 | 0.0 | 0.00 | 0.00 | 0.00 | 67 | 1008.6 |
| 20260505061526 | 60 | 248 | 0.0 | 0.0 | 0.00 | 0.00 | 0.00 | 71 | 1008.7 |
| 20260505060020 | 58 | 250 | 0.0 | 0.0 | 0.00 | 0.00 | 0.00 | 76 | 1008.8 |
| 20260505054516 | 57 | 250 | 0.0 | 0.0 | 0.00 | 0.00 | 0.00 | 76 | 1008.8 |